| time (UTC) | temp C | wind direction | speed KPH | gust KPH | rain 1hr cm | rain 24hr cm | rain mn cm | humidity % | barometer mb |
| 20260509201514 | 31 | 360 | 1.6 | 6.4 | 0.00 | 0.00 | 0.00 | 49 | 1007.5 |
| 20260509200010 | 30 | 147 | 0.0 | 9.7 | 0.00 | 0.00 | 0.00 | 54 | 1007.6 |
| 20260509194508 | 30 | 257 | 3.2 | 11.3 | 0.00 | 0.00 | 0.00 | 55 | 1007.8 |
| 20260509193010 | 29 | 225 | 3.2 | 12.9 | 0.00 | 0.00 | 0.00 | 57 | 1008.0 |
| 20260509191503 | 28 | 198 | 4.8 | 12.9 | 0.00 | 0.00 | 0.00 | 56 | 1008.2 |
| 20260509190004 | 28 | 227 | 8.0 | 14.5 | 0.00 | 0.00 | 0.00 | 56 | 1008.2 |
| 20260509184504 | 29 | 225 | 6.4 | 12.9 | 0.00 | 0.00 | 0.00 | 54 | 1008.4 |
| 20260509183059 | 28 | 121 | 1.6 | 12.9 | 0.00 | 0.00 | 0.00 | 58 | 1008.7 |
| 20260509181601 | 28 | 274 | 1.6 | 9.7 | 0.00 | 0.00 | 0.00 | 60 | 1008.7 |
| 20260509180100 | 27 | 59 | 6.4 | 9.7 | 0.00 | 0.00 | 0.00 | 59 | 1008.9 |
| 20260509174555 | 27 | 355 | 6.4 | 16.1 | 0.00 | 0.00 | 0.00 | 59 | 1009.0 |
| 20260509173053 | 27 | 333 | 3.2 | 16.1 | 0.00 | 0.00 | 0.00 | 63 | 1009.1 |
| 20260509171554 | 26 | 327 | 3.2 | 11.3 | 0.00 | 0.00 | 0.00 | 63 | 1009.1 |
| 20260509170049 | 26 | 288 | 6.4 | 19.3 | 0.00 | 0.00 | 0.00 | 63 | 1009.2 |
| 20260509164551 | 26 | 284 | 6.4 | 16.1 | 0.00 | 0.00 | 0.00 | 64 | 1009.4 |
| 20260509163043 | 25 | 346 | 3.2 | 16.1 | 0.00 | 0.00 | 0.00 | 65 | 1009.6 |
| 20260509161550 | 25 | 347 | 9.7 | 17.7 | 0.00 | 0.00 | 0.00 | 64 | 1009.7 |
| 20260509160040 | 25 | 327 | 8.0 | 17.7 | 0.00 | 0.00 | 0.00 | 67 | 1009.6 |
| 20260509154537 | 24 | 22 | 12.9 | 20.9 | 0.00 | 0.00 | 0.00 | 66 | 1009.3 |
| 20260509153034 | 23 | 296 | 8.0 | 17.7 | 0.00 | 0.00 | 0.00 | 71 | 1009.3 |
| 20260509151530 | 23 | 299 | 8.0 | 20.9 | 0.00 | 0.00 | 0.00 | 72 | 1009.4 |
| 20260509150035 | 22 | 351 | 9.7 | 16.1 | 0.00 | 0.00 | 0.00 | 75 | 1009.5 |
| 20260509144532 | 22 | 299 | 8.0 | 16.1 | 0.00 | 0.00 | 0.00 | 79 | 1009.7 |
| 20260509143025 | 21 | 317 | 4.8 | 14.5 | 0.00 | 0.00 | 0.00 | 82 | 1009.7 |
| 20260509141524 | 21 | 288 | 6.4 | 16.1 | 0.00 | 0.00 | 0.00 | 83 | 1009.7 |
| 20260509140024 | 21 | 271 | 4.8 | 14.5 | 0.00 | 0.00 | 0.00 | 84 | 1009.9 |
| 20260509134524 | 20 | 342 | 4.8 | 14.5 | 0.00 | 0.00 | 0.00 | 85 | 1009.8 |
| 20260509133024 | 20 | 290 | 6.4 | 14.5 | 0.00 | 0.00 | 0.00 | 84 | 1009.8 |
| 20260509131527 | 19 | 309 | 4.8 | 9.7 | 0.00 | 0.00 | 0.00 | 84 | 1009.7 |
| 20260509130026 | 19 | 343 | 3.2 | 12.9 | 0.00 | 0.00 | 0.00 | 84 | 1009.7 |
| 20260509124523 | 18 | 288 | 4.8 | 11.3 | 0.00 | 0.00 | 0.00 | 85 | 1009.6 |
| 20260509123020 | 18 | 273 | 4.8 | 12.9 | 0.00 | 0.00 | 0.00 | 84 | 1009.6 |
| 20260509121526 | 18 | 331 | 4.8 | 9.7 | 0.00 | 0.00 | 0.00 | 84 | 1009.4 |
| 20260509120019 | 19 | 311 | 1.6 | 6.4 | 0.00 | 0.00 | 0.00 | 83 | 1009.3 |
| 20260509114525 | 19 | 279 | 1.6 | 4.8 | 0.00 | 0.05 | 0.00 | 83 | 1009.2 |
| 20260509113018 | 19 | 299 | 3.2 | 8.0 | 0.00 | 0.05 | 0.00 | 85 | 1008.7 |
| 20260509111516 | 19 | 264 | 1.6 | 4.8 | 0.00 | 0.05 | 0.00 | 85 | 1008.4 |
| 20260509110014 | 20 | 313 | 3.2 | 8.0 | 0.00 | 0.05 | 0.00 | 85 | 1008.3 |
| 20260509104513 | 20 | 281 | 1.6 | 8.0 | 0.00 | 0.05 | 0.00 | 83 | 1008.3 |
| 20260509103011 | 20 | 287 | 3.2 | 6.4 | 0.00 | 0.05 | 0.00 | 81 | 1008.4 |
| 20260509101513 | 20 | 306 | 0.0 | 4.8 | 0.00 | 0.05 | 0.00 | 79 | 1008.3 |
| 20260509100019 | 21 | 360 | 1.6 | 6.4 | 0.00 | 0.05 | 0.00 | 78 | 1008.2 |
| 20260509094515 | 21 | 360 | 1.6 | 12.9 | 0.00 | 0.05 | 0.00 | 77 | 1008.1 |
| 20260509093010 | 21 | 43 | 6.4 | 16.1 | 0.00 | 0.05 | 0.00 | 75 | 1007.3 |
| 20260509091515 | 20 | 53 | 6.4 | 19.3 | 0.00 | 0.05 | 0.00 | 82 | 1006.7 |
| 20260509090008 | 20 | 153 | 1.6 | 11.3 | 0.00 | 0.05 | 0.00 | 83 | 1005.7 |
| 20260509084511 | 20 | 157 | 3.2 | 16.1 | 0.00 | 0.05 | 0.00 | 83 | 1005.5 |
| 20260509083004 | 20 | 182 | 8.0 | 17.7 | 0.00 | 0.05 | 0.00 | 82 | 1005.6 |
| 20260509081600 | 21 | 164 | 9.7 | 17.7 | 0.00 | 0.05 | 0.00 | 76 | 1005.4 |
| 20260509080056 | 21 | 344 | 1.6 | 4.8 | 0.00 | 0.05 | 0.00 | 73 | 1005.8 |
| 20260509074602 | 21 | 344 | 3.2 | 24.1 | 0.00 | 0.05 | 0.00 | 77 | 1007.0 |
| 20260509073046 | 20 | 175 | 3.2 | 11.3 | 0.00 | 0.05 | 0.00 | 89 | 1008.2 |
| 20260509071542 | 20 | 169 | 1.6 | 11.3 | 0.00 | 0.05 | 0.00 | 90 | 1008.8 |
| 20260509070039 | 20 | 191 | 8.0 | 12.9 | 0.00 | 0.05 | 0.00 | 91 | 1009.4 |
| 20260509064546 | 20 | 200 | 6.4 | 14.5 | 0.00 | 0.05 | 0.00 | 91 | 1010.1 |
| 20260509063042 | 20 | 225 | 6.4 | 12.9 | 0.00 | 0.05 | 0.00 | 91 | 1010.4 |
| 20260509061532 | 20 | 346 | 1.6 | 4.8 | 0.00 | 0.05 | 0.00 | 90 | 1010.2 |
| 20260509060033 | 20 | 346 | 1.6 | 4.8 | 0.00 | 0.05 | 0.00 | 89 | 1010.3 |
| 20260509054529 | 20 | 360 | 0.0 | 4.8 | 0.00 | 0.05 | 0.00 | 89 | 1009.8 |
| 20260509053028 | 20 | 360 | 0.0 | 8.0 | 0.00 | 0.05 | 0.00 | 88 | 1010.1 |
| 20260509051534 | 20 | 360 | 3.2 | 8.0 | 0.00 | 0.05 | 0.00 | 88 | 1010.3 |
| 20260509050024 | 21 | 188 | 0.0 | 3.2 | 0.00 | 0.05 | 0.00 | 86 | 1009.8 |
| 20260509044523 | 21 | 176 | 0.0 | 8.0 | 0.00 | 0.05 | 0.05 | 86 | 1008.9 |
| 20260509043023 | 21 | 156 | 1.6 | 11.3 | 0.00 | 0.05 | 0.05 | 86 | 1008.9 |
| 20260509041522 | 21 | 78 | 0.0 | 3.2 | 0.00 | 0.05 | 0.05 | 85 | 1008.9 |
| 20260509040021 | 21 | 78 | 0.0 | 3.2 | 0.00 | 0.05 | 0.05 | 85 | 1009.0 |
| 20260509034538 | 21 | 78 | 0.0 | 3.2 | 0.00 | 0.05 | 0.05 | 85 | 1009.1 |
| 20260509033020 | 21 | 78 | 0.0 | 6.4 | 0.00 | 0.05 | 0.05 | 84 | 1008.8 |
| 20260509031520 | 22 | 113 | 0.0 | 8.0 | 0.00 | 0.05 | 0.05 | 83 | 1008.2 |
| 20260509030022 | 22 | 48 | 3.2 | 12.9 | 0.00 | 0.05 | 0.05 | 83 | 1007.3 |
| 20260509024519 | 22 | 109 | 1.6 | 11.3 | 0.00 | 0.05 | 0.05 | 82 | 1007.5 |
| 20260509023018 | 22 | 157 | 3.2 | 11.3 | 0.00 | 0.05 | 0.05 | 81 | 1007.0 |
| 20260509021520 | 22 | 180 | 1.6 | 12.9 | 0.00 | 0.05 | 0.05 | 80 | 1006.8 |
| 20260509020016 | 22 | 109 | 3.2 | 11.3 | 0.00 | 0.05 | 0.05 | 80 | 1006.5 |
| 20260509014515 | 22 | 161 | 1.6 | 8.0 | 0.00 | 0.05 | 0.05 | 80 | 1007.1 |
| 20260509013016 | 22 | 161 | 1.6 | 8.0 | 0.00 | 0.05 | 0.05 | 79 | 1007.3 |
| 20260509011513 | 22 | 178 | 3.2 | 11.3 | 0.00 | 0.05 | 0.05 | 79 | 1007.2 |
| 20260509010015 | 22 | 160 | 0.0 | 11.3 | 0.00 | 0.05 | 0.05 | 79 | 1007.0 |
| 20260509004511 | 22 | 181 | 3.2 | 12.9 | 0.00 | 0.05 | 0.05 | 79 | 1006.8 |
| 20260509003011 | 22 | 178 | 4.8 | 11.3 | 0.00 | 0.05 | 0.05 | 78 | 1006.8 |
| 20260509001509 | 22 | 175 | 6.4 | 19.3 | 0.00 | 0.05 | 0.05 | 79 | 1006.7 |
| 20260509000007 | 22 | 179 | 8.0 | 16.1 | 0.00 | 0.05 | 0.05 | 78 | 1006.9 |
| 20260508234507 | 22 | 186 | 6.4 | 14.5 | 0.00 | 0.05 | 0.05 | 77 | 1007.0 |
| 20260508233004 | 22 | 142 | 6.4 | 14.5 | 0.00 | 0.05 | 0.05 | 77 | 1007.0 |
| 20260508231507 | 22 | 175 | 4.8 | 11.3 | 0.00 | 0.05 | 0.05 | 76 | 1007.1 |
| 20260508230003 | 23 | 200 | 8.0 | 12.9 | 0.00 | 0.05 | 0.05 | 74 | 1007.2 |
| 20260508224505 | 23 | 134 | 1.6 | 12.9 | 0.00 | 0.05 | 0.05 | 73 | 1007.2 |
| 20260508223001 | 23 | 144 | 4.8 | 14.5 | 0.00 | 0.05 | 0.05 | 73 | 1007.2 |
| 20260508221604 | 23 | 165 | 4.8 | 16.1 | 0.00 | 0.05 | 0.05 | 71 | 1007.3 |
| 20260508220101 | 23 | 165 | 9.7 | 25.7 | 0.00 | 0.05 | 0.05 | 71 | 1007.2 |
| 20260508214608 | 24 | 99 | 1.6 | 25.7 | 0.00 | 0.05 | 0.05 | 71 | 1007.3 |
| 20260508213055 | 24 | 124 | 11.3 | 22.5 | 0.00 | 0.05 | 0.05 | 68 | 1007.5 |
| 20260508211555 | 25 | 113 | 6.4 | 16.1 | 0.00 | 0.05 | 0.05 | 65 | 1007.8 |
| 20260508210053 | 25 | 129 | 1.6 | 14.5 | 0.00 | 0.05 | 0.05 | 68 | 1008.0 |
| 20260508204547 | 23 | 182 | 4.8 | 16.1 | 0.00 | 0.05 | 0.05 | 68 | 1008.3 |
| 20260508203044 | 23 | 151 | 0.0 | 6.4 | 0.00 | 0.05 | 0.05 | 68 | 1008.3 |